Location: Cornospital
(48.0620°N, 3.3837°W)
Time: 14:38:27
(UTC+00:00)

Cosmos 2237 Rocket - Pass Details

Date: 17 June 2021
Orbit: 835 x 850 km, 71.0° (Epoch: 30 July)

Event Time Altitude Azimuth Distance (km) Brightness Sun altitude
Exits shadow 23:08:34 28° 164° (SSE) 1,510 2.9 -17.0°
Maximum altitude 23:11:04 46° 109° (ESE) 1,108 2.6 -17.1°
Drops below altitude 10° 23:16:24 10° 38° (NE) 2,456 5.1 -17.3°
Sets 23:18:56 0° 32° (NNE) 3,395 6.0 -17.4°
